TimeEDT,TemperatureF,Dew PointF,Humidity,Sea Level PressureIn,VisibilityMPH,Wind Direction,Wind SpeedMPH,Gust SpeedMPH,PrecipitationIn,Events,Conditions,WindDirDegrees,DateUTC
12:11 AM,77.0,71.6,83,29.96,10.0,ESE,6.9,-,N/A,,Mostly Cloudy,120,2013-05-22 04:11:00
12:53 AM,77.0,72.0,84,29.94,10.0,ESE,9.2,-,N/A,,Mostly Cloudy,120,2013-05-22 04:53:00
1:05 AM,77.0,73.4,89,29.94,9.0,SE,11.5,-,0.00,Rain,Light Rain,130,2013-05-22 05:05:00
1:53 AM,77.0,73.0,88,29.92,10.0,SE,9.2,-,0.00,,Partly Cloudy,130,2013-05-22 05:53:00
2:53 AM,77.0,73.0,88,29.91,10.0,SE,10.4,-,N/A,,Mostly Cloudy,140,2013-05-22 06:53:00
3:53 AM,77.0,72.0,84,29.91,10.0,SE,5.8,-,N/A,,Scattered Clouds,140,2013-05-22 07:53:00
4:53 AM,77.0,73.0,88,29.91,10.0,SE,5.8,-,N/A,,Partly Cloudy,140,2013-05-22 08:53:00
5:13 AM,75.2,73.4,94,29.91,10.0,Calm,Calm,-,N/A,,Mostly Cloudy,0,2013-05-22 09:13:00
5:34 AM,75.2,73.4,94,29.91,8.0,SSE,9.2,-,0.00,Rain,Light Rain,150,2013-05-22 09:34:00
5:53 AM,75.9,73.0,91,29.91,7.0,SSE,8.1,-,0.02,Rain,Light Rain,160,2013-05-22 09:53:00
6:05 AM,75.2,73.4,94,29.91,2.0,SSE,6.9,-,0.09,Rain,Heavy Rain,160,2013-05-22 10:05:00
6:26 AM,75.2,73.4,94,29.92,4.0,SE,3.5,-,0.24,Rain,Light Rain,130,2013-05-22 10:26:00
6:39 AM,75.2,73.4,94,29.92,10.0,SSW,15.0,-,0.24,,Mostly Cloudy,210,2013-05-22 10:39:00
6:44 AM,73.4,71.6,94,29.93,1.2,South,12.7,21.9,0.33,Rain-Thunderstorm,Light Thunderstorms and Rain,180,2013-05-22 10:44:00
6:53 AM,71.1,68.0,90,29.94,1.2,SSE,17.3,29.9,0.66,Rain-Thunderstorm,Heavy Thunderstorms and Rain,150,2013-05-22 10:53:00
7:00 AM,71.6,68.0,88,29.93,3.0,SE,4.6,21.9,0.05,Rain-Thunderstorm,Heavy Thunderstorms and Rain,130,2013-05-22 11:00:00
7:11 AM,71.6,69.8,94,29.93,5.0,SSE,3.5,-,0.06,Rain,Light Rain,150,2013-05-22 11:11:00
7:26 AM,71.6,69.8,94,29.93,9.0,SW,5.8,-,0.06,Rain,Light Rain,220,2013-05-22 11:26:00
7:30 AM,71.6,69.8,94,29.94,1.5,West,5.8,-,0.16,Rain,Heavy Rain,260,2013-05-22 11:30:00
7:34 AM,73.4,69.8,88,29.94,2.5,WSW,3.5,-,0.22,Rain,Heavy Rain,250,2013-05-22 11:34:00
7:40 AM,71.6,71.6,100,29.94,3.0,Calm,Calm,-,0.28,Rain-Thunderstorm,Heavy Thunderstorms and Rain,0,2013-05-22 11:40:00
7:53 AM,72.0,71.1,97,29.93,5.0,ESE,5.8,-,0.29,Rain-Thunderstorm,Light Thunderstorms and Rain,110,2013-05-22 11:53:00
7:56 AM,71.6,69.8,94,29.93,9.0,ESE,4.6,-,0.00,Rain,Light Rain,110,2013-05-22 11:56:00
8:53 AM,73.9,72.0,93,29.94,10.0,NNE,3.5,-,0.00,,Scattered Clouds,30,2013-05-22 12:53:00
9:53 AM,75.0,72.0,90,29.96,10.0,SSE,5.8,-,N/A,,Mostly Cloudy,160,2013-05-22 13:53:00
10:53 AM,79.0,73.0,82,29.96,10.0,SSE,5.8,-,N/A,,Scattered Clouds,160,2013-05-22 14:53:00
11:53 AM,82.9,73.0,72,29.95,10.0,Calm,Calm,-,N/A,,Scattered Clouds,0,2013-05-22 15:53:00
12:29 PM,82.4,75.2,79,29.95,10.0,East,8.1,-,N/A,,Mostly Cloudy,90,2013-05-22 16:29:00
12:53 PM,82.0,75.0,79,29.94,10.0,ESE,10.4,-,N/A,,Mostly Cloudy,120,2013-05-22 16:53:00
1:05 PM,80.6,73.4,79,29.94,10.0,SE,11.5,-,N/A,,Mostly Cloudy,130,2013-05-22 17:05:00
1:53 PM,82.0,71.1,69,29.92,10.0,SE,10.4,-,N/A,,Scattered Clouds,130,2013-05-22 17:53:00
2:53 PM,78.1,70.0,76,29.93,10.0,West,3.5,-,0.03,Rain-Thunderstorm,Light Thunderstorms and Rain,280,2013-05-22 18:53:00
3:30 PM,78.8,71.6,78,29.92,10.0,Calm,Calm,-,0.00,,Scattered Clouds,0,2013-05-22 19:30:00
3:53 PM,80.1,71.1,74,29.92,10.0,Calm,Calm,-,0.00,,Scattered Clouds,0,2013-05-22 19:53:00
4:33 PM,82.4,73.4,74,29.90,10.0,NNE,4.6,-,N/A,Thunderstorm,Thunderstorm,30,2013-05-22 20:33:00
4:53 PM,82.0,73.9,76,29.90,10.0,Variable,4.6,-,N/A,Thunderstorm,Thunderstorm,0,2013-05-22 20:53:00
5:04 PM,82.4,69.8,66,29.89,10.0,ESE,5.8,-,N/A,,Scattered Clouds,110,2013-05-22 21:04:00
5:53 PM,80.1,73.9,81,29.91,10.0,East,6.9,-,N/A,,Scattered Clouds,100,2013-05-22 21:53:00
6:53 PM,81.0,73.0,77,29.91,10.0,SE,6.9,-,N/A,,Scattered Clouds,130,2013-05-22 22:53:00
7:53 PM,79.0,70.0,74,29.92,10.0,ESE,6.9,-,N/A,,Partly Cloudy,110,2013-05-22 23:53:00
8:53 PM,78.8,69.8,74,29.93,10.0,SSE,3.5,-,N/A,,Partly Cloudy,160,2013-05-23 00:53:00
9:53 PM,78.8,73.4,83,29.94,10.0,SSE,5.8,-,N/A,,Partly Cloudy,150,2013-05-23 01:53:00
10:53 PM,78.8,71.6,78,29.95,10.0,South,6.9,-,N/A,,Partly Cloudy,180,2013-05-23 02:53:00
11:53 PM,78.1,71.1,79,29.95,10.0,SSE,4.6,-,N/A,,Partly Cloudy,160,2013-05-23 03:53:00